CZ-6A DEB

Satellite information

Favourite Embed

Satellite Type and Status

DEBRISIN ORBIT

Key statistics

Satellite CZ-6A DEB at a glance.

Uptime

1024

Days in orbit

Revolutions

≈ 14.5

Per day

Orbit

SSO

Sun Synchronous Orbit

Inclination

98.9

Latest

Satellite identification and parameters

Extended collection of information and parameters for CZ-6A DEB.

Object identification

Identified? True

Debris? True

Object name: CZ-6A DEB

International designator: 2022-151AFM

Object number (NORAD): 56637

Object ID (CCSDS): 56637

Country: PEOPLES REPUBLIC OF CHINA (PRC)

Current information (Y/N): Y

RCS size: SMALL

Orbital parameters

Period: 99.14 minutes

Inclination: 98.8805 deg

SMA: 7095.671 km

Apoapsis: 802.969 km

Periapsis: 632.104 km

RAAN: 308.0207 deg

Eccentricy: 0.01204008

Argument of periapsis: 173.1825 deg

Mean anomaly: 187.1042 deg

Mean motion: 14.52487896 rev/day

Mean motion (dot): 0.00011258 rev/day2

B* drag term: 0.0025165265 1/REarth

Two-line elements (TLE)

Creation date: Aug. 30, 2025, 3:38 a.m.

Reference frame: TEME

Reference center: EARTH

Epoch: Aug. 29, 2025, 5:27 p.m. UTC

TLE line 0: 0 CZ-6A DEB

TLE line 1: 1 56637U 22151AFM 25241.72733330 .00011258 00000-0 25165-2 0 9998

TLE line 2: 2 56637 98.8805 308.0207 0120401 173.1825 187.1042 14.52487896134715

Live tracking on map

Real-time ground track for satellite CZ-6A DEB.

In-orbit conjunctions

A list of the most updated potential collisions computed for object CZ-6A DEB.

Target Orbit TCA Probability of collision Miss distance Type
CZ-2D R/B SSO 2025-05-21 18:48:15 0.0001412965 315.0 (m) ROCKET BODY
COSMOS 44 LEO 2024-06-16 14:30:59 0.0001472267 420.0 (m) PAYLOAD

Associated space launch

Chinese satellite reported for atmospheric/ocean/environmental/spatial parameter research purposes, details TBD.

CZ-6A DEB was lifted into orbit during the mission ‘Long March 6A | Yunhai 3’, on board a Long March 6A space rocket.

The launch took place on Nov. 11, 2022, 10:52 p.m. from Launch Complex 9A.

For more information about the launch, click the button.

Launch to space Long March 6A | Yunhai 3
Long March 6A | Yunhai 3

Agency: N/A

Status: Launch Successful

Launch date: Nov. 11, 2022, 10:52 p.m. UTC

Rocket: Long March 6A

Launch pad: Launch Complex 9A

Location: Taiyuan Satellite Launch Center, People's Republic of China

...

Latest news about this satellite

There are no fresh news available about this satellite. Check back as we update our databases every day.


Newsletter sign-up

Weekly statistics, charts and insights to help you stay on top of the space industry.